Location: Devore Heights
(34.2372°N, 117.4156°W)
Time: 23:15:13
(UTC+00:00)

Vanguard 2 Rocket - Visible Passes

Search period start: 11 September 2024 00:00
Search period end: 21 September 2024 00:00
Orbit: 553 x 3301 km, 32.9° (Epoch: 11 September)

Date Brightness Start Highest point End Pass type
(mag) Time Alt. Az. Time Alt. Az. Time Alt. Az.
11 Sep 9.6 08:51:30 37° ESE 08:51:30 37° ESE 09:02:25 10° E visible
11 Sep 8.9 10:57:00 49° WSW 11:02:24 79° SSE 11:22:15 10° E visible
11 Sep 9.7 13:03:47 10° W 13:20:34 85° S 13:40:57 10° ESE visible
12 Sep 10.3 07:51:51 17° E 07:51:51 17° E 07:55:14 10° E visible
12 Sep 8.7 09:57:20 69° SSE 09:57:27 69° SSE 10:15:39 10° E visible
12 Sep 9.4 12:02:49 22° W 12:14:31 86° S 12:35:05 10° E visible
13 Sep 9.4 08:57:40 42° ESE 08:57:40 42° ESE 09:08:55 10° ENE visible
13 Sep 8.9 11:03:09 47° WSW 11:08:53 84° S 11:28:40 10° E visible
14 Sep 10.2 07:58:01 19° E 07:58:01 19° E 08:02:07 10° E visible
14 Sep 8.6 10:03:30 77° S 10:03:49 77° SSE 10:22:00 10° E visible
14 Sep 9.4 12:08:59 20° W 12:21:00 85° S 12:41:28 10° ESE visible
15 Sep 9.2 09:03:51 47° E 09:03:51 47° E 09:15:17 10° E visible
15 Sep 8.9 11:09:21 44° W 11:15:23 86° S 11:35:03 10° E visible
16 Sep 10.1 08:04:14 21° E 08:04:14 21° E 08:08:39 10° E visible
16 Sep 8.5 10:09:44 81° SSW 10:10:17 83° S 10:28:20 10° E visible
16 Sep 9.3 12:15:13 18° W 12:27:23 80° SSW 12:47:43 10° ESE visible
17 Sep 9.1 09:10:07 49° E 09:10:07 49° E 09:21:35 10° E visible
17 Sep 8.9 11:15:37 42° W 11:21:52 85° S 11:41:22 10° E visible
18 Sep 10.0 08:10:32 22° E 08:10:32 22° E 08:15:03 10° E visible
18 Sep 8.4 10:16:02 81° SW 10:16:49 85° S 10:34:38 10° E visible
18 Sep 9.3 12:21:32 16° W 12:33:42 74° SSW 12:53:44 10° ESE visible
19 Sep 9.0 09:16:29 51° E 09:16:29 51° E 09:27:52 10° E visible
19 Sep 8.9 11:21:59 40° W 11:28:18 80° S 11:47:31 10° ESE visible
20 Sep 10.0 08:16:58 22° E 08:16:58 22° E 08:21:21 10° E visible
20 Sep 8.4 10:22:29 80° WSW 10:23:19 84° S 10:40:53 10° E visible
20 Sep 9.3 12:27:59 16° W 12:39:54 65° SSW 12:59:28 10° SE visible
